Location: Altleiningen
(49.5078°N, 8.0741°E)
Time: 16:24:30
(UTC+00:00)

NOSS 3 (A) - Pass Details

Date: 14 June 2025
Orbit: 160 x 953 km, 63.3° (Epoch: 23 April)

Event Time Altitude Azimuth Distance (km) Brightness Sun altitude
Rises 21:33:59 0° 317° (NW) 1,849 9.6 -12.9°
Reaches altitude 10° 21:35:38 10° 317° (NW) 1,135 8.2 -13.0°
Maximum altitude 21:38:06 87° 230° (SW) 343 4.2 -13.2°
Enters shadow 21:39:33 27° 140° (SE) 749 5.4 -13.3°
